FW1957 Weather Reports


time (UTC)temp
C
wind
direction
speed
KPH
gust
KPH
rain 1hr
cm
rain 24hr
cm
rain mn
cm
humidity
%
barometer
mb
20260503053707 10 111 9.7 17.7 0.00 0.00 0.00 78 1017.0
20260503053214 10 158 8.0 17.7 0.00 0.00 0.00 80 1016.9
20260503052705 10 155 8.0 16.1 0.00 0.00 0.00 81 1016.9
20260503051719 9 169 6.4 12.9 0.00 0.00 0.00 82 1017.0
20260503051207 8 181 4.8 12.9 0.00 0.00 0.00 83 1017.0
20260503050710 8 151 4.8 12.9 0.00 0.00 0.00 84 1017.0
20260503050656 8 182 6.4 11.3 0.00 0.00 0.00 84 1016.9
20260503050555 8 180 4.8 11.3 0.00 0.00 0.00 84 1017.0
20260503045217 8 157 4.8 9.7 0.00 0.00 0.00 84 1016.9
20260503044713 7 161 3.2 6.4 0.00 0.00 0.00 83 1017.0
20260503044206 7 225 4.8 6.4 0.00 0.00 0.00 83 1016.9
20260503043713 7 254 3.2 6.4 0.00 0.00 0.00 82 1016.9
20260503043217 7 256 1.6 3.2 0.00 0.00 0.00 81 1016.9
20260503042206 7 256 1.6 3.2 0.00 0.00 0.00 80 1016.8
20260503041708 7 256 1.6 3.2 0.00 0.00 0.00 79 1016.8
20260503041216 7 256 1.6 6.4 0.00 0.00 0.00 79 1016.7
20260503040708 7 256 3.2 6.4 0.00 0.00 0.00 78 1016.6
20260503040207 7 259 3.2 6.4 0.00 0.00 0.00 78 1016.5
20260503035752 7 257 3.2 8.0 0.00 0.00 0.00 77 1016.6
20260503034212 7 234 4.8 9.7 0.00 0.00 0.00 76 1016.5
20260503033716 7 252 6.4 8.0 0.00 0.00 0.00 76 1016.5
20260503033214 7 249 6.4 11.3 0.00 0.00 0.00 76 1016.5
20260503032719 7 242 6.4 12.9 0.00 0.00 0.00 76 1016.5
20260503032213 7 252 8.0 12.9 0.00 0.00 0.00 75 1016.5
20260503031717 7 251 9.7 12.9 0.00 0.00 0.00 75 1016.4
20260503031217 7 248 6.4 11.3 0.00 0.00 0.00 74 1016.5
20260503030712 7 249 4.8 6.4 0.00 0.00 0.00 74 1016.4
20260503030218 8 245 3.2 6.4 0.00 0.00 0.00 74 1016.4
20260503024712 8 206 3.2 12.9 0.00 0.00 0.00 73 1016.4
20260503024650 8 168 6.4 12.9 0.00 0.00 0.00 73 1016.4
20260503023708 8 135 8.0 11.3 0.00 0.00 0.00 72 1016.3
20260503023205 8 248 6.4 11.3 0.00 0.00 0.00 72 1016.2
20260503021218 8 250 6.4 9.7 0.00 0.00 0.00 71 1016.3
20260503020718 8 250 8.0 11.3 0.00 0.00 0.00 71 1016.2
20260503020212 9 242 8.0 11.3 0.00 0.00 0.00 71 1016.2
20260503015716 9 234 8.0 11.3 0.00 0.00 0.00 70 1016.2
20260503015211 9 233 8.0 9.7 0.00 0.00 0.00 70 1016.2
20260503014712 9 238 8.0 9.7 0.00 0.00 0.00 70 1016.3
20260503014216 9 241 6.4 9.7 0.00 0.00 0.00 70 1016.3
20260503013718 9 222 6.4 12.9 0.00 0.00 0.00 69 1016.3
20260503013217 9 228 6.4 12.9 0.00 0.00 0.00 70 1016.3
20260503012718 9 232 6.4 12.9 0.00 0.00 0.00 69 1016.3
20260503012220 9 228 6.4 12.9 0.00 0.00 0.00 70 1016.3
20260503011717 10 229 8.0 14.5 0.00 0.00 0.00 69 1016.3
20260503011210 10 220 8.0 14.5 0.00 0.00 0.00 68 1016.4
20260503010735 10 242 9.7 14.5 0.00 0.00 0.00 68 1016.4
20260503010220 10 229 9.7 14.5 0.00 0.00 0.00 68 1016.4
20260503005716 10 227 9.7 16.1 0.00 0.00 0.00 68 1016.4
20260503005213 10 235 11.3 16.1 0.00 0.00 0.00 68 1016.4
20260503004705 10 240 11.3 16.1 0.00 0.00 0.00 68 1016.4
20260503004208 10 238 11.3 14.5 0.00 0.00 0.00 67 1016.5
20260503003711 10 227 9.7 11.3 0.00 0.00 0.00 66 1016.4
20260503003214 10 228 8.0 14.5 0.00 0.00 0.00 65 1016.5
20260503002220 11 229 9.7 14.5 0.00 0.00 0.00 63 1016.5
20260503001713 11 229 9.7 14.5 0.00 0.00 0.00 63 1016.6
20260503001223 11 236 9.7 12.9 0.00 0.00 0.00 62 1016.7
20260503000720 11 236 9.7 16.1 0.00 0.00 0.00 61 1016.7
20260503000207 12 230 9.7 17.7 0.00 0.00 0.00 60 1016.7
20260502235709 12 238 11.3 17.7 0.00 0.00 0.00 60 1016.8
20260502235205 11 219 11.3 17.7 0.00 0.00 0.00 61 1016.8
20260502234719 11 246 11.3 16.1 0.00 0.00 0.00 61 1016.9
20260502234209 11 240 11.3 17.7 0.00 0.00 0.00 61 1017.0
20260502233706 11 239 11.3 17.7 0.00 0.00 0.00 61 1017.0
20260502233213 11 238 11.3 19.3 0.00 0.00 0.00 61 1017.0
20260502232717 11 238 12.9 19.3 0.00 0.00 0.00 60 1017.0
20260502232213 11 236 11.3 19.3 0.00 0.00 0.00 60 1017.0
20260502231718 11 232 11.3 14.5 0.00 0.00 0.00 61 1017.1
20260502231215 11 236 9.7 14.5 0.00 0.00 0.00 61 1017.1
20260502230715 11 234 8.0 14.5 0.00 0.00 0.00 62 1017.2
20260502225215 11 222 11.3 16.1 0.00 0.00 0.00 64 1017.4
20260502224212 11 238 9.7 14.5 0.00 0.00 0.00 63 1017.6
20260502223706 11 235 11.3 14.5 0.00 0.00 0.00 63 1017.7
20260502223213 11 242 11.3 14.5 0.00 0.00 0.00 63 1017.7
20260502222717 11 240 11.3 14.5 0.00 0.00 0.00 63 1017.6
20260502222215 11 242 11.3 14.5 0.00 0.00 0.00 62 1017.7
20260502220713 11 234 11.3 16.1 0.00 0.00 0.00 62 1017.8
20260502220218 11 236 11.3 16.1 0.00 0.00 0.00 61 1017.7
20260502215706 11 227 11.3 16.1 0.00 0.00 0.00 61 1017.8
20260502215215 12 227 11.3 16.1 0.00 0.00 0.00 61 1017.8
20260502214706 12 238 9.7 16.1 0.00 0.00 0.00 60 1017.7
20260502214211 12 246 9.7 16.1 0.00 0.00 0.00 60 1017.7
20260502213718 12 232 9.7 14.5 0.00 0.00 0.00 60 1017.8
20260502213207 12 233 9.7 14.5 0.00 0.00 0.00 60 1017.8
20260502212718 12 238 9.7 12.9 0.00 0.00 0.00 60 1017.8
20260502212206 12 231 8.0 12.9 0.00 0.00 0.00 60 1017.9
20260502210217 12 233 6.4 9.7 0.00 0.00 0.00 60 1018.0
20260502205710 12 234 6.4 9.7 0.00 0.00 0.00 60 1018.0
20260502205217 12 226 6.4 9.7 0.00 0.00 0.00 60 1018.1
20260502204717 12 225 6.4 8.0 0.00 0.00 0.00 60 1018.1
20260502204210 12 237 6.4 8.0 0.00 0.00 0.00 60 1018.1
20260502203714 12 238 8.0 8.0 0.00 0.00 0.00 60 1018.1
20260502202213 12 240 4.8 8.0 0.00 0.00 0.00 59 1018.2
20260502201712 13 253 4.8 8.0 0.00 0.00 0.00 59 1018.2
20260502201219 13 244 4.8 6.4 0.00 0.00 0.00 59 1018.2
20260502200705 13 252 4.8 11.3 0.00 0.00 0.00 58 1018.3
20260502195715 13 250 6.4 11.3 0.00 0.00 0.00 58 1018.3
20260502195207 13 248 6.4 11.3 0.00 0.00 0.00 58 1018.3
20260502194718 13 248 8.0 11.3 0.00 0.00 0.00 57 1018.3
20260502194209 13 252 8.0 11.3 0.00 0.00 0.00 56 1018.3
20260502193715 14 259 8.0 11.3 0.00 0.00 0.00 55 1018.3
20260502193234 15 258 8.0 11.3 0.00 0.00 0.00 54 1018.3
20260502192709 15 259 6.4 9.7 0.00 0.00 0.00 54 1018.3
20260502192215 15 248 6.4 9.7 0.00 0.00 0.00 53 1018.3
20260502191707 15 263 4.8 6.4 0.00 0.00 0.00 52 1018.3
20260502190729 16 259 4.8 9.7 0.00 0.00 0.00 50 1018.3
20260502190210 16 257 4.8 6.4 0.00 0.00 0.00 49 1018.2
20260502185706 16 246 3.2 3.2 0.00 0.00 0.00 49 1018.2
20260502185217 17 195 1.6 3.2 0.00 0.00 0.00 48 1018.2
20260502184705 17 117 1.6 3.2 0.00 0.00 0.00 46 1018.2
20260502184215 18 117 1.6 1.6 0.00 0.00 0.00 45 1018.1
20260502183707 18 117 1.6 3.2 0.00 0.00 0.00 45 1018.1
20260502182709 19 117 1.6 3.2 0.00 0.00 0.00 41 1018.0
20260502182212 19 117 1.6 4.8 0.00 0.00 0.00 42 1018.0
20260502181714 20 117 1.6 4.8 0.00 0.00 0.00 39 1017.9
20260502181207 20 108 1.6 4.8 0.00 0.00 0.00 39 1017.8
20260502180709 20 108 3.2 6.4 0.00 0.00 0.00 38 1017.8
20260502180210 21 111 3.2 6.4 0.00 0.00 0.00 37 1017.8
20260502170205 23 90 4.8 11.3 0.00 0.00 0.00 33 1017.8
20260502164214 23 63 6.4 14.5 0.00 0.00 0.00 33 1017.9
20260502163708 23 69 8.0 14.5 0.00 0.00 0.00 33 1017.9
20260502163218 23 103 8.0 16.1 0.00 0.00 0.00 32 1017.9
20260502162209 23 96 9.7 19.3 0.00 0.00 0.00 31 1018.0
20260502161709 23 39 9.7 20.9 0.00 0.00 0.00 31 1018.1
20260502161210 23 86 11.3 20.9 0.00 0.00 0.00 30 1018.1
20260502160719 23 84 8.0 20.9 0.00 0.00 0.00 31 1018.2
20260502152205 23 88 6.4 14.5 0.00 0.00 0.00 31 1018.6
20260502151215 23 61 4.8 14.5 0.00 0.00 0.00 31 1018.7
20260502150711 23 5 4.8 14.5 0.00 0.00 0.00 31 1018.7
20260502150208 23 343 6.4 14.5 0.00 0.00 0.00 29 1018.7
20260502130208 23 65 8.0 19.3 0.00 0.00 0.00 31 1020.1
20260502123715 23 55 9.7 19.3 0.00 0.00 0.00 31 1020.3
20260502123215 23 50 8.0 16.1 0.00 0.00 0.00 31 1020.4
20260502122713 23 43 6.4 16.1 0.00 0.00 0.00 31 1020.4
20260502122218 23 0 8.0 17.7 0.00 0.00 0.00 31 1020.6
20260502121717 23 28 9.7 17.7 0.00 0.00 0.00 31 1020.6
20260502121210 23 54 8.0 19.3 0.00 0.00 0.00 31 1020.7
20260502120712 23 32 6.4 19.3 0.00 0.00 0.00 32 1020.7
20260502120215 23 51 8.0 17.7 0.00 0.00 0.00 32 1020.8
20260502115718 22 311 8.0 17.7 0.00 0.00 0.00 33 1020.8
20260502115217 22 22 8.0 17.7 0.00 0.00 0.00 34 1021.0
20260502113715 22 86 9.7 20.9 0.00 0.00 0.00 35 1021.1
20260502113217 22 57 9.7 20.9 0.00 0.00 0.00 35 1021.1
20260502112718 22 86 9.7 17.7 0.00 0.00 0.00 34 1021.2
20260502112206 22 55 6.4 17.7 0.00 0.00 0.00 33 1021.2
20260502111716 22 74 6.4 19.3 0.00 0.00 0.00 33 1021.4
20260502110709 22 71 11.3 20.9 0.00 0.00 0.00 34 1021.5
20260502110217 22 40 8.0 20.9 0.00 0.00 0.00 35 1021.5
20260502105710 22 58 4.8 20.9 0.00 0.00 0.00 36 1021.6
20260502105213 22 43 8.0 20.9 0.00 0.00 0.00 35 1021.7
20260502104719 22 64 8.0 20.9 0.00 0.00 0.00 35 1021.8
20260502104212 22 16 8.0 30.6 0.00 0.00 0.00 36 1021.8
20260502103707 21 57 9.7 30.6 0.00 0.00 0.00 37 1021.9
20260502103216 21 9 8.0 30.6 0.00 0.00 0.00 37 1021.9
20260502102706 21 78 6.4 24.1 0.00 0.00 0.00 38 1021.9
20260502102216 21 71 8.0 24.1 0.00 0.00 0.00 37 1022.0
20260502101710 21 91 9.7 24.1 0.00 0.00 0.00 38 1022.1
20260502100206 21 21 9.7 20.9 0.00 0.00 0.00 39 1022.2
20260502091211 20 57 9.7 17.7 0.00 0.00 0.00 43 1022.6
20260502090708 20 70 9.7 17.7 0.00 0.00 0.00 42 1022.7
20260502090217 20 44 9.7 17.7 0.00 0.00 0.00 43 1022.8
20260502071211 17 59 3.2 11.3 0.00 0.00 0.00 52 1023.1
20260502070712 16 36 1.6 11.3 0.00 0.00 0.00 53 1023.1
20260502070209 16 64 1.6 4.8 0.00 0.00 0.00 57 1023.2
20260502065731 15 252 3.2 4.8 0.00 0.00 0.00 58 1023.2
20260502065206 15 235 3.2 6.4 0.00 0.00 0.00 59 1023.2
20260502064712 14 261 3.2 6.4 0.00 0.00 0.00 60 1023.2
20260502064213 14 223 3.2 8.0 0.00 0.00 0.00 60 1023.1
20260502063708 13 229 3.2 9.7 0.00 0.00 0.00 61 1023.2
20260502063216 13 196 4.8 11.3 0.00 0.00 0.00 62 1023.2
20260502062707 13 221 6.4 14.5 0.00 0.00 0.00 63 1023.2
20260502061712 12 247 8.0 12.9 0.00 0.00 0.00 66 1023.2
20260502061218 11 219 6.4 12.9 0.00 0.00 0.00 67 1023.2
20260502060712 11 232 3.2 6.4 0.00 0.00 0.00 69 1023.3
20260502060220 10 171 1.6 4.8 0.00 0.00 0.00 70 1023.3
20260502054709 10 180 1.6 6.4 0.00 0.00 0.00 71 1023.2
20260502054205 9 171 1.6 6.4 0.00 0.00 0.00 72 1023.2